Location: Unspecified
(42.2730°N, 83.7130°W)
Time: 14:23:03
(UTC+00:00)

Cosmos 2208 Rocket - Pass Details

Date: 14 December 2025
Orbit: 751 x 801 km, 74.0° (Epoch: 17 January)

Event Time Altitude Azimuth Distance (km) Brightness Sun altitude
Rises 11:59:58 0° 200° (SSW) 3,226 7.3 -10.1°
Reaches altitude 10° 12:02:20 10° 200° (SSW) 2,296 6.5 -9.7°
Maximum altitude 12:07:33 85° 290° (WNW) 768 4.0 -8.8°
Drops below altitude 10° 12:12:45 10° 19° (NNE) 2,287 6.4 -7.9°
Sets 12:15:06 0° 20° (NNE) 3,212 7.2 -7.6°
